CW1120 Weather Reports


Display with metric or nautical units.
time (UTC)temp
F
wind
direction
speed
MPH
gust
MPH
rain 1hr
in
rain 24hr
in
rain mn
in
humidity
%
barometer
mb
20260502130130 62 217 10.0 17.0 0.00 0.00 0.00 76 1012.5
20260502123129 64 201 15.0 19.0 0.00 0.00 0.00 73 1012.7
20260502122130 64 225 8.0 15.0 0.00 0.00 0.00 73 1012.8
20260502121140 64 197 10.0 14.0 0.00 0.00 0.00 72 1012.9
20260502120132 64 235 11.0 16.0 0.00 0.00 0.00 73 1013.0
20260502115149 64 196 12.0 16.0 0.00 0.00 0.00 73 1013.0
20260502114142 63 212 8.0 17.0 0.00 0.00 0.00 73 1013.1
20260502113142 64 217 10.0 15.0 0.00 0.00 0.00 74 1013.3
20260502112135 63 242 9.0 14.0 0.00 0.00 0.00 73 1013.4
20260502111126 63 197 9.0 16.0 0.00 0.00 0.00 72 1013.5
20260502110145 63 215 11.0 14.0 0.00 0.00 0.00 73 1013.6
20260502105136 62 228 9.0 16.0 0.00 0.00 0.00 73 1013.6
20260502104128 62 234 11.0 19.0 0.00 0.00 0.00 72 1013.7
20260502103130 62 227 11.0 16.0 0.00 0.00 0.00 70 1013.8
20260502102135 62 244 9.0 15.0 0.00 0.00 0.00 72 1014.0
20260502101154 62 210 7.0 15.0 0.00 0.00 0.00 73 1014.0
20260502100143 62 196 8.0 15.0 0.00 0.00 0.00 72 1014.0
20260502091143 60 204 9.0 19.0 0.00 0.00 0.00 74 1014.5
20260502090133 60 222 12.0 18.0 0.00 0.00 0.00 75 1014.7
20260502071145 57 189 9.0 17.0 0.00 0.00 0.00 79 1015.0
20260502070145 57 190 9.0 17.0 0.00 0.00 0.00 78 1015.0
20260502065137 57 178 9.0 20.0 0.00 0.00 0.00 79 1015.1
20260502064144 57 186 9.0 14.0 0.00 0.00 0.00 79 1015.1
20260502063140 57 259 8.0 18.0 0.00 0.00 0.00 79 1015.2
20260502062130 57 199 9.0 13.0 0.00 0.00 0.00 79 1015.3
20260502061144 56 145 6.0 14.0 0.00 0.00 0.00 82 1015.3
20260502060128 55 203 7.0 12.0 0.00 0.00 0.00 84 1015.4
20260502055129 55 187 6.0 11.0 0.00 0.00 0.00 88 1015.3
20260502054138 53 172 6.0 10.0 0.00 0.00 0.00 93 1015.4
20260502053131 52 192 4.0 10.0 0.00 0.00 0.00 96 1015.4
20260502052133 51 145 3.0 9.0 0.00 0.00 0.00 97 1015.5
20260502051151 50 166 3.0 7.0 0.00 0.00 0.00 98 1015.6
20260502050138 48 190 3.0 5.0 0.00 0.00 0.00 98 1015.7
20260502045125 46 169 1.0 4.0 0.00 0.00 0.00 98 1015.8
20260502044126 45 178 2.0 6.0 0.00 0.00 0.00 97 1016.0
20260502043131 45 138 2.0 4.0 0.00 0.00 0.00 97 1016.2
20260502042134 45 95 1.0 3.0 0.00 0.00 0.00 96 1016.4
20260502041126 45 117 1.0 6.0 0.00 0.00 0.00 97 1016.5
20260502040146 45 143 2.0 5.0 0.00 0.00 0.00 96 1016.6
20260502035138 45 90 2.0 4.0 0.00 0.00 0.00 97 1016.6
20260502034129 45 105 2.0 6.0 0.00 0.00 0.00 97 1016.8
20260502033149 45 107 2.0 6.0 0.00 0.00 0.00 97 1017.0
20260502032140 43 131 3.0 5.0 0.00 0.00 0.00 96 1017.3
20260502031134 43 147 2.0 4.0 0.00 0.00 0.00 96 1017.4
20260502030151 43 122 2.0 4.0 0.00 0.00 0.00 96 1017.6
20260502025141 43 136 2.0 3.0 0.00 0.00 0.00 96 1017.7
20260502024143 43 125 1.0 3.0 0.00 0.00 0.00 96 1017.8
20260502023135 43 125 2.0 3.0 0.00 0.00 0.00 95 1017.9
20260502022128 43 148 1.0 3.0 0.00 0.00 0.00 95 1018.1
20260502021146 43 146 1.0 4.0 0.00 0.00 0.00 95 1018.2
20260502020140 43 142 2.0 3.0 0.00 0.00 0.00 95 1018.4
20260502015131 43 157 1.0 1.0 0.00 0.04 0.00 94 1018.5
20260502014152 44 157 0.0 6.0 0.00 0.04 0.00 94 1018.7
20260502013144 44 155 2.0 4.0 0.00 0.04 0.00 95 1018.8
20260502012133 44 127 3.0 6.0 0.00 0.04 0.00 95 1018.9
20260502011135 43 136 3.0 4.0 0.00 0.04 0.00 94 1018.9
20260502010126 44 159 0.0 3.0 0.00 0.04 0.00 94 1019.2
20260502005146 44 124 0.0 3.0 0.00 0.04 0.00 94 1019.3
20260502004138 44 167 2.0 6.0 0.00 0.04 0.00 94 1019.3
20260502003159 44 163 1.0 6.0 0.00 0.04 0.00 94 1019.5
20260502002132 44 167 2.0 7.0 0.00 0.04 0.00 94 1019.5
20260502001154 44 173 3.0 7.0 0.00 0.04 0.00 93 1019.7
20260502000145 43 164 2.0 5.0 0.00 0.04 0.00 93 1019.7
20260501235140 43 163 3.0 5.0 0.00 0.04 0.00 92 1019.8
20260501234131 44 167 3.0 5.0 0.00 0.04 0.00 92 1019.9
20260501233143 44 152 1.0 3.0 0.00 0.04 0.00 92 1020.1
20260501232204 45 163 1.0 4.0 0.00 0.04 0.00 92 1020.1
20260501231204 45 169 2.0 4.0 0.00 0.04 0.00 91 1020.3
20260501230153 45 151 1.0 5.0 0.00 0.04 0.00 91 1020.5
20260501225132 45 168 3.0 5.0 0.00 0.04 0.01 90 1020.6
20260501224139 45 176 2.0 5.0 0.00 0.04 0.01 90 1020.8
20260501223202 46 214 3.0 4.0 0.00 0.04 0.01 89 1020.9
20260501222135 46 228 2.0 4.0 0.00 0.04 0.01 88 1020.9
20260501221139 47 250 2.0 4.0 0.00 0.04 0.01 86 1020.9
20260501220206 49 229 2.0 7.0 0.00 0.04 0.01 86 1021.0
20260501215135 49 233 4.0 8.0 0.00 0.04 0.01 89 1021.0
20260501214127 46 223 4.0 6.0 0.00 0.04 0.01 83 1021.1
20260501213128 46 250 1.0 2.0 0.00 0.04 0.01 82 1021.2
20260501212137 47 182 0.0 3.0 0.00 0.04 0.01 82 1021.2
20260501211140 47 215 0.0 2.0 0.00 0.04 0.01 81 1021.3
20260501210155 48 215 1.0 5.0 0.00 0.04 0.01 79 1021.3
20260501205158 49 196 2.0 7.0 0.00 0.04 0.01 77 1021.3
20260501204128 50 194 3.0 6.0 0.00 0.04 0.01 75 1021.4
20260501203150 52 175 3.0 6.0 0.00 0.04 0.01 74 1021.5
20260501202141 53 200 4.0 9.0 0.00 0.04 0.01 72 1021.6
20260501201145 53 200 3.0 8.0 0.00 0.04 0.01 72 1021.6
20260501200156 53 205 4.0 11.0 0.00 0.04 0.01 73 1021.7
20260501195138 52 203 5.0 8.0 0.00 0.04 0.01 73 1021.8
20260501194129 53 182 3.0 5.0 0.00 0.04 0.01 72 1021.8
20260501193130 53 202 2.0 8.0 0.00 0.04 0.01 73 1021.9
20260501192142 53 191 2.0 6.0 0.00 0.04 0.01 72 1022.0
20260501191145 54 145 3.0 9.0 0.00 0.04 0.01 72 1022.2
20260501190158 54 178 3.0 8.0 0.00 0.04 0.01 73 1022.2
20260501185126 54 191 4.0 9.0 0.00 0.04 0.01 73 1022.3
20260501184143 54 222 4.0 8.0 0.00 0.04 0.01 72 1022.5
20260501183145 55 247 5.0 11.0 0.00 0.04 0.01 72 1022.4
20260501182138 56 194 5.0 10.0 0.00 0.04 0.01 72 1022.5
20260501181134 57 212 7.0 10.0 0.00 0.04 0.01 68 1022.5
20260501180127 58 180 5.0 8.0 0.00 0.04 0.01 66 1022.5
20260501175145 58 161 7.0 10.0 0.00 0.04 0.01 66 1022.6
20260501174207 59 225 9.0 11.0 0.00 0.04 0.01 65 1022.7
20260501173138 59 249 10.0 12.0 0.00 0.04 0.01 66 1022.7
20260501172131 59 253 8.0 12.0 0.00 0.04 0.01 64 1022.8
20260501171130 59 216 10.0 12.0 0.00 0.04 0.01 63 1022.9
20260501170143 60 246 10.0 14.0 0.00 0.04 0.01 62 1023.0
20260501165206 59 202 8.0 12.0 0.00 0.04 0.01 65 1023.0
20260501164206 59 255 8.0 12.0 0.00 0.04 0.01 67 1023.1
20260501163155 59 241 9.0 15.0 0.00 0.04 0.01 67 1023.3
20260501162128 59 233 12.0 17.0 0.00 0.04 0.01 65 1023.4
20260501161149 59 240 11.0 16.0 0.00 0.04 0.01 64 1023.4
20260501160147 60 243 11.0 15.0 0.00 0.04 0.01 63 1023.6
20260501155138 60 218 11.0 15.0 0.00 0.04 0.01 63 1023.7
20260501154129 60 215 8.0 15.0 0.00 0.04 0.01 63 1023.8
20260501153151 59 221 10.0 12.0 0.00 0.04 0.01 67 1024.0
20260501152143 59 221 10.0 14.0 0.00 0.04 0.01 66 1024.1
20260501151146 58 219 8.0 11.0 0.00 0.04 0.01 68 1024.1
20260501150134 58 240 10.0 13.0 0.00 0.04 0.01 70 1024.3